| time (UTC) | temp C | wind direction | speed KPH | gust KPH | rain 1hr cm | rain 24hr cm | rain mn cm | humidity % | barometer mb |
| 20260506160350 | 26 | 169 | 3.2 | 4.8 | 0.00 | 0.00 | 0.00 | 57 | 1017.6 |
| 20260506155848 | 27 | 100 | 3.2 | 8.0 | 0.00 | 0.00 | 0.00 | 56 | 1017.9 |
| 20260506155344 | 26 | 272 | 3.2 | 9.7 | 0.00 | 0.00 | 0.00 | 56 | 1017.8 |
| 20260506153456 | 26 | 274 | 6.4 | 9.7 | 0.00 | 0.00 | 0.00 | 59 | 1018.0 |
| 20260506152954 | 26 | 159 | 4.8 | 6.4 | 0.00 | 0.00 | 0.00 | 59 | 1017.9 |
| 20260506152450 | 26 | 180 | 3.2 | 6.4 | 0.00 | 0.00 | 0.00 | 60 | 1018.1 |
| 20260506151949 | 26 | 237 | 4.8 | 6.4 | 0.00 | 0.00 | 0.00 | 58 | 1017.9 |
| 20260506151446 | 26 | 277 | 4.8 | 4.8 | 0.00 | 0.00 | 0.00 | 59 | 1017.9 |
| 20260506150943 | 26 | 237 | 4.8 | 11.3 | 0.00 | 0.00 | 0.00 | 58 | 1018.0 |
| 20260506150439 | 26 | 237 | 3.2 | 14.5 | 0.00 | 0.00 | 0.00 | 60 | 1018.1 |
| 20260506145936 | 26 | 273 | 11.3 | 11.3 | 0.00 | 0.00 | 0.00 | 60 | 1017.8 |
| 20260506145432 | 26 | 282 | 6.4 | 9.7 | 0.00 | 0.00 | 0.00 | 60 | 1017.8 |
| 20260506144930 | 26 | 266 | 4.8 | 8.0 | 0.00 | 0.00 | 0.00 | 61 | 1017.7 |
| 20260506144427 | 26 | 303 | 11.3 | 11.3 | 0.00 | 0.00 | 0.00 | 61 | 1017.7 |
| 20260506143925 | 26 | 142 | 1.6 | 8.0 | 0.00 | 0.00 | 0.00 | 63 | 1017.7 |
| 20260506143422 | 25 | 202 | 6.4 | 8.0 | 0.00 | 0.00 | 0.00 | 63 | 1017.6 |
| 20260506142920 | 25 | 199 | 6.4 | 14.5 | 0.00 | 0.00 | 0.00 | 63 | 1017.6 |
| 20260506142418 | 25 | 234 | 3.2 | 6.4 | 0.00 | 0.00 | 0.00 | 64 | 1017.7 |
| 20260506141915 | 25 | 277 | 4.8 | 11.3 | 0.00 | 0.00 | 0.00 | 64 | 1017.5 |
| 20260506141413 | 25 | 200 | 3.2 | 6.4 | 0.00 | 0.00 | 0.00 | 64 | 1017.5 |
| 20260506140911 | 25 | 98 | 1.6 | 6.4 | 0.00 | 0.00 | 0.00 | 67 | 1017.5 |
| 20260506140408 | 24 | 242 | 3.2 | 4.8 | 0.00 | 0.00 | 0.00 | 71 | 1017.6 |
| 20260506135905 | 24 | 234 | 3.2 | 3.2 | 0.00 | 0.00 | 0.00 | 71 | 1017.6 |
| 20260506135401 | 23 | 130 | 1.6 | 6.4 | 0.00 | 0.00 | 0.00 | 71 | 1017.6 |
| 20260506134858 | 23 | 220 | 0.0 | 4.8 | 0.00 | 0.00 | 0.00 | 73 | 1017.7 |
| 20260506134354 | 23 | 234 | 3.2 | 6.4 | 0.00 | 0.00 | 0.00 | 73 | 1017.8 |
| 20260506133851 | 23 | 219 | 6.4 | 8.0 | 0.00 | 0.00 | 0.00 | 73 | 1017.6 |
| 20260506133348 | 23 | 278 | 3.2 | 6.4 | 0.00 | 0.00 | 0.00 | 73 | 1017.6 |
| 20260506132844 | 23 | 156 | 1.6 | 4.8 | 0.00 | 0.00 | 0.00 | 74 | 1017.5 |
| 20260506132342 | 22 | 252 | 3.2 | 8.0 | 0.00 | 0.00 | 0.00 | 75 | 1017.5 |
| 20260506131840 | 23 | 114 | 3.2 | 3.2 | 0.00 | 0.00 | 0.00 | 75 | 1017.6 |
| 20260506131336 | 22 | 147 | 4.8 | 12.9 | 0.00 | 0.00 | 0.00 | 77 | 1017.5 |
| 20260506130833 | 22 | 214 | 0.0 | 8.0 | 0.00 | 0.00 | 0.00 | 79 | 1017.4 |
| 20260506130329 | 21 | 302 | 6.4 | 6.4 | 0.00 | 0.00 | 0.00 | 80 | 1017.7 |
| 20260506125827 | 21 | 217 | 8.0 | 8.0 | 0.00 | 0.00 | 0.00 | 81 | 1017.3 |
| 20260506125326 | 21 | 190 | 3.2 | 4.8 | 0.00 | 0.00 | 0.00 | 82 | 1017.2 |
| 20260506124824 | 21 | 240 | 3.2 | 6.4 | 0.00 | 0.00 | 0.00 | 82 | 1017.2 |
| 20260506124320 | 21 | 108 | 1.6 | 6.4 | 0.00 | 0.00 | 0.00 | 83 | 1017.3 |
| 20260506123818 | 20 | 131 | 0.0 | 6.4 | 0.00 | 0.00 | 0.00 | 84 | 1017.2 |
| 20260506123316 | 20 | 181 | 3.2 | 3.2 | 0.00 | 0.00 | 0.00 | 85 | 1017.2 |
| 20260506122813 | 20 | 217 | 0.0 | 4.8 | 0.00 | 0.00 | 0.00 | 86 | 1017.1 |
| 20260506122310 | 20 | 77 | 1.6 | 3.2 | 0.00 | 0.00 | 0.00 | 87 | 1017.1 |
| 20260506121808 | 19 | 103 | 3.2 | 3.2 | 0.00 | 0.00 | 0.00 | 88 | 1017.1 |
| 20260506121305 | 18 | 115 | 3.2 | 4.8 | 0.00 | 0.00 | 0.00 | 88 | 1016.8 |
| 20260506120802 | 18 | 93 | 1.6 | 4.8 | 0.00 | 0.00 | 0.00 | 89 | 1017.0 |
| 20260506120300 | 18 | 122 | 1.6 | 3.2 | 0.00 | 0.00 | 0.00 | 90 | 1017.1 |
| 20260506115757 | 17 | 96 | 3.2 | 3.2 | 0.00 | 0.00 | 0.00 | 92 | 1017.0 |
| 20260506115255 | 17 | 101 | 1.6 | 3.2 | 0.00 | 0.00 | 0.00 | 93 | 1017.2 |
| 20260506114753 | 16 | 140 | 1.6 | 1.6 | 0.00 | 0.00 | 0.00 | 95 | 1017.1 |
| 20260506114250 | 16 | 55 | 0.0 | 0.0 | 0.00 | 0.00 | 0.00 | 96 | 1017.1 |
| 20260506113749 | 16 | 55 | 0.0 | 0.0 | 0.00 | 0.00 | 0.00 | 96 | 1016.9 |
| 20260506113246 | 15 | 73 | 1.6 | 1.6 | 0.00 | 0.00 | 0.00 | 96 | 1017.0 |
| 20260506112742 | 15 | 22 | 0.0 | 0.0 | 0.00 | 0.00 | 0.00 | 96 | 1016.9 |
| 20260506112240 | 14 | 113 | 0.0 | 0.0 | 0.00 | 0.00 | 0.00 | 96 | 1016.8 |
| 20260506111737 | 14 | 129 | 0.0 | 1.6 | 0.00 | 0.00 | 0.00 | 96 | 1016.7 |
| 20260506111235 | 13 | 103 | 0.0 | 1.6 | 0.00 | 0.00 | 0.00 | 96 | 1016.8 |
| 20260506110731 | 13 | 117 | 0.0 | 1.6 | 0.00 | 0.00 | 0.00 | 96 | 1016.6 |
| 20260506110230 | 13 | 135 | 0.0 | 0.0 | 0.00 | 0.00 | 0.00 | 96 | 1016.7 |
| 20260506105726 | 13 | 134 | 0.0 | 1.6 | 0.00 | 0.00 | 0.00 | 96 | 1016.8 |
| 20260506105223 | 13 | 118 | 1.6 | 1.6 | 0.00 | 0.00 | 0.00 | 96 | 1016.6 |
| 20260506104721 | 13 | 144 | 1.6 | 1.6 | 0.00 | 0.00 | 0.00 | 96 | 1016.7 |
| 20260506104218 | 13 | 44 | 0.0 | 0.0 | 0.00 | 0.00 | 0.00 | 96 | 1016.7 |
| 20260506103715 | 13 | 293 | 0.0 | 0.0 | 0.00 | 0.00 | 0.00 | 96 | 1016.7 |
| 20260506103212 | 13 | 293 | 0.0 | 0.0 | 0.00 | 0.00 | 0.00 | 96 | 1016.7 |
| 20260506102710 | 13 | 293 | 0.0 | 0.0 | 0.00 | 0.00 | 0.00 | 96 | 1016.7 |
| 20260506102208 | 13 | 174 | 0.0 | 1.6 | 0.00 | 0.00 | 0.00 | 96 | 1016.6 |
| 20260506101704 | 13 | 174 | 0.0 | 1.6 | 0.00 | 0.00 | 0.00 | 96 | 1016.6 |
| 20260506101201 | 13 | 50 | 0.0 | 0.0 | 0.00 | 0.00 | 0.00 | 96 | 1016.5 |
| 20260506100659 | 13 | 98 | 0.0 | 1.6 | 0.00 | 0.00 | 0.00 | 95 | 1016.5 |
| 20260506100157 | 13 | 142 | 0.0 | 0.0 | 0.00 | 0.00 | 0.00 | 95 | 1016.5 |
| 20260506095655 | 13 | 142 | 0.0 | 0.0 | 0.00 | 0.00 | 0.00 | 95 | 1016.5 |
| 20260506095151 | 13 | 135 | 0.0 | 0.0 | 0.00 | 0.00 | 0.00 | 95 | 1016.6 |
| 20260506094649 | 13 | 135 | 0.0 | 0.0 | 0.00 | 0.00 | 0.00 | 95 | 1016.6 |
| 20260506093454 | 13 | 134 | 0.0 | 0.0 | 0.00 | 0.00 | 0.00 | 95 | 1016.4 |
| 20260506092952 | 13 | 134 | 0.0 | 0.0 | 0.00 | 0.00 | 0.00 | 95 | 1016.4 |
| 20260506092449 | 13 | 199 | 0.0 | 0.0 | 0.00 | 0.00 | 0.00 | 95 | 1016.3 |
| 20260506091946 | 13 | 142 | 0.0 | 1.6 | 0.00 | 0.00 | 0.00 | 95 | 1016.5 |
| 20260506091444 | 13 | 283 | 0.0 | 0.0 | 0.00 | 0.00 | 0.00 | 95 | 1016.7 |
| 20260506090941 | 13 | 283 | 0.0 | 0.0 | 0.00 | 0.00 | 0.00 | 95 | 1016.7 |
| 20260506090439 | 13 | 283 | 0.0 | 0.0 | 0.00 | 0.00 | 0.00 | 95 | 1016.7 |
| 20260506085935 | 13 | 130 | 0.0 | 0.0 | 0.00 | 0.00 | 0.00 | 95 | 1016.6 |
| 20260506085432 | 13 | 113 | 0.0 | 1.6 | 0.00 | 0.00 | 0.00 | 95 | 1016.4 |
| 20260506084928 | 13 | 65 | 1.6 | 3.2 | 0.00 | 0.00 | 0.00 | 95 | 1016.5 |
| 20260506084426 | 13 | 32 | 0.0 | 1.6 | 0.00 | 0.00 | 0.00 | 94 | 1016.7 |
| 20260506083921 | 13 | 142 | 0.0 | 0.0 | 0.00 | 0.00 | 0.00 | 94 | 1016.8 |
| 20260506083419 | 13 | 336 | 0.0 | 0.0 | 0.00 | 0.00 | 0.00 | 94 | 1017.1 |
| 20260506082916 | 13 | 336 | 0.0 | 0.0 | 0.00 | 0.00 | 0.00 | 94 | 1017.1 |
| 20260506082413 | 13 | 309 | 0.0 | 0.0 | 0.00 | 0.00 | 0.00 | 94 | 1016.9 |
| 20260506081908 | 13 | 58 | 0.0 | 1.6 | 0.00 | 0.00 | 0.00 | 94 | 1017.0 |
| 20260506081408 | 13 | 58 | 0.0 | 1.6 | 0.00 | 0.00 | 0.00 | 94 | 1017.0 |
| 20260506080904 | 14 | 11 | 0.0 | 1.6 | 0.00 | 0.00 | 0.00 | 94 | 1016.7 |
| 20260506080401 | 13 | 45 | 1.6 | 1.6 | 0.00 | 0.00 | 0.00 | 94 | 1016.6 |
| 20260506073408 | 14 | 217 | 0.0 | 0.0 | 0.00 | 0.00 | 0.00 | 93 | 1016.4 |
| 20260506072905 | 14 | 217 | 0.0 | 0.0 | 0.00 | 0.00 | 0.00 | 93 | 1016.4 |
| 20260506072402 | 14 | 89 | 0.0 | 1.6 | 0.00 | 0.00 | 0.00 | 93 | 1016.1 |
| 20260506071900 | 14 | 89 | 0.0 | 1.6 | 0.00 | 0.00 | 0.00 | 93 | 1016.1 |
| 20260506071358 | 14 | 116 | 1.6 | 3.2 | 0.00 | 0.00 | 0.00 | 93 | 1016.2 |
| 20260506070854 | 14 | 95 | 1.6 | 1.6 | 0.00 | 0.00 | 0.00 | 92 | 1016.5 |
| 20260506070352 | 14 | 50 | 0.0 | 0.0 | 0.00 | 0.00 | 0.00 | 92 | 1016.7 |
| 20260506062051 | 14 | 224 | 0.0 | 1.6 | 0.00 | 0.00 | 0.00 | 91 | 1017.0 |
| 20260506061546 | 14 | 224 | 0.0 | 1.6 | 0.00 | 0.00 | 0.00 | 91 | 1017.0 |
| 20260506061044 | 14 | 168 | 0.0 | 1.6 | 0.00 | 0.00 | 0.00 | 90 | 1016.7 |
| 20260506060543 | 14 | 168 | 0.0 | 1.6 | 0.00 | 0.00 | 0.00 | 90 | 1016.7 |
| 20260506051011 | 15 | 135 | 0.0 | 0.0 | 0.00 | 0.00 | 0.00 | 88 | 1017.5 |
| 20260506050509 | 15 | 142 | 0.0 | 0.0 | 0.00 | 0.00 | 0.00 | 87 | 1017.5 |
| 20260506044959 | 15 | 89 | 0.0 | 0.0 | 0.00 | 0.00 | 0.00 | 86 | 1017.5 |
| 20260506044458 | 15 | 89 | 0.0 | 1.6 | 0.00 | 0.00 | 0.00 | 86 | 1017.4 |
| 20260506043954 | 15 | 81 | 0.0 | 1.6 | 0.00 | 0.00 | 0.00 | 86 | 1017.7 |
| 20260506043451 | 15 | 131 | 0.0 | 0.0 | 0.00 | 0.00 | 0.00 | 86 | 1017.7 |
| 20260506042949 | 15 | 89 | 0.0 | 0.0 | 0.00 | 0.00 | 0.00 | 86 | 1017.7 |
| 20260506042448 | 15 | 89 | 0.0 | 0.0 | 0.00 | 0.00 | 0.00 | 86 | 1017.9 |
| 20260506041946 | 15 | 22 | 0.0 | 0.0 | 0.00 | 0.00 | 0.00 | 85 | 1017.8 |
| 20260506041444 | 15 | 229 | 0.0 | 0.0 | 0.00 | 0.00 | 0.00 | 85 | 1017.9 |
| 20260506040940 | 15 | 142 | 0.0 | 0.0 | 0.00 | 0.00 | 0.00 | 84 | 1018.1 |
| 20260506040438 | 15 | 147 | 0.0 | 1.6 | 0.00 | 0.00 | 0.00 | 84 | 1017.7 |
| 20260506035934 | 16 | 98 | 0.0 | 3.2 | 0.00 | 0.00 | 0.00 | 84 | 1017.5 |
| 20260506035431 | 16 | 141 | 0.0 | 1.6 | 0.00 | 0.00 | 0.00 | 83 | 1017.6 |
| 20260506034928 | 16 | 95 | 0.0 | 1.6 | 0.00 | 0.00 | 0.00 | 83 | 1017.8 |
| 20260506034425 | 16 | 102 | 0.0 | 0.0 | 0.00 | 0.00 | 0.00 | 83 | 1017.7 |
| 20260506033922 | 16 | 126 | 0.0 | 1.6 | 0.00 | 0.00 | 0.00 | 83 | 1017.5 |
| 20260506033419 | 16 | 89 | 0.0 | 0.0 | 0.00 | 0.00 | 0.00 | 83 | 1017.6 |
| 20260506032916 | 16 | 110 | 0.0 | 0.0 | 0.00 | 0.00 | 0.00 | 82 | 1017.5 |
| 20260506032413 | 16 | 103 | 0.0 | 0.0 | 0.00 | 0.00 | 0.00 | 82 | 1017.7 |
| 20260506031910 | 16 | 135 | 0.0 | 0.0 | 0.00 | 0.00 | 0.00 | 82 | 1017.5 |
| 20260506031407 | 16 | 77 | 0.0 | 1.6 | 0.00 | 0.00 | 0.00 | 82 | 1017.6 |
| 20260506030905 | 16 | 142 | 0.0 | 1.6 | 0.00 | 0.00 | 0.00 | 81 | 1017.6 |
| 20260506030403 | 16 | 135 | 0.0 | 1.6 | 0.00 | 0.00 | 0.00 | 81 | 1017.5 |
| 20260506025859 | 16 | 107 | 0.0 | 1.6 | 0.00 | 0.00 | 0.00 | 81 | 1017.6 |
| 20260506025356 | 16 | 230 | 0.0 | 1.6 | 0.00 | 0.00 | 0.00 | 81 | 1017.6 |
| 20260506024853 | 16 | 153 | 1.6 | 1.6 | 0.00 | 0.00 | 0.00 | 80 | 1017.3 |
| 20260506024350 | 17 | 128 | 0.0 | 1.6 | 0.00 | 0.00 | 0.00 | 80 | 1017.4 |
| 20260506023846 | 17 | 76 | 0.0 | 1.6 | 0.00 | 0.00 | 0.00 | 79 | 1017.5 |
| 20260506023343 | 17 | 162 | 0.0 | 1.6 | 0.00 | 0.00 | 0.00 | 79 | 1017.8 |
| 20260506022839 | 17 | 147 | 0.0 | 1.6 | 0.00 | 0.00 | 0.00 | 79 | 1017.6 |
| 20260506022337 | 17 | 154 | 0.0 | 1.6 | 0.00 | 0.00 | 0.00 | 78 | 1017.8 |
| 20260506021835 | 17 | 147 | 0.0 | 0.0 | 0.00 | 0.00 | 0.00 | 78 | 1017.7 |
| 20260506021332 | 17 | 32 | 0.0 | 0.0 | 0.00 | 0.00 | 0.00 | 78 | 1017.7 |
| 20260506020828 | 17 | 147 | 0.0 | 0.0 | 0.00 | 0.00 | 0.00 | 78 | 1017.9 |
| 20260506020326 | 17 | 142 | 0.0 | 0.0 | 0.00 | 0.00 | 0.00 | 77 | 1017.7 |
| 20260506015824 | 17 | 38 | 0.0 | 1.6 | 0.00 | 0.00 | 0.00 | 77 | 1017.8 |
| 20260506015321 | 17 | 142 | 0.0 | 0.0 | 0.00 | 0.00 | 0.00 | 76 | 1017.6 |
| 20260506014817 | 17 | 37 | 0.0 | 1.6 | 0.00 | 0.00 | 0.00 | 76 | 1017.6 |
| 20260506014314 | 17 | 95 | 0.0 | 1.6 | 0.00 | 0.00 | 0.00 | 75 | 1017.6 |
| 20260506013811 | 18 | 212 | 0.0 | 1.6 | 0.00 | 0.00 | 0.00 | 75 | 1017.7 |
| 20260506013309 | 18 | 124 | 0.0 | 1.6 | 0.00 | 0.00 | 0.00 | 74 | 1017.3 |
| 20260506012805 | 18 | 120 | 0.0 | 3.2 | 0.00 | 0.00 | 0.00 | 73 | 1017.2 |
| 20260506012307 | 18 | 109 | 1.6 | 1.6 | 0.00 | 0.00 | 0.00 | 73 | 1017.2 |
| 20260506011759 | 18 | 131 | 0.0 | 3.2 | 0.00 | 0.00 | 0.00 | 72 | 1017.3 |
| 20260506011255 | 18 | 131 | 1.6 | 1.6 | 0.00 | 0.00 | 0.00 | 72 | 1017.1 |
| 20260506010754 | 18 | 111 | 0.0 | 3.2 | 0.00 | 0.00 | 0.00 | 71 | 1017.2 |
| 20260506010251 | 18 | 113 | 0.0 | 3.2 | 0.00 | 0.00 | 0.00 | 71 | 1017.3 |
| 20260506005748 | 19 | 157 | 0.0 | 1.6 | 0.00 | 0.00 | 0.00 | 70 | 1017.5 |
| 20260506005245 | 19 | 142 | 0.0 | 1.6 | 0.00 | 0.00 | 0.00 | 69 | 1017.3 |
| 20260506004740 | 19 | 113 | 0.0 | 1.6 | 0.00 | 0.00 | 0.00 | 68 | 1017.2 |
| 20260506004238 | 20 | 326 | 0.0 | 1.6 | 0.00 | 0.00 | 0.00 | 68 | 1017.1 |
| 20260506003734 | 20 | 144 | 0.0 | 3.2 | 0.00 | 0.00 | 0.00 | 67 | 1017.0 |
| 20260506003231 | 20 | 128 | 1.6 | 3.2 | 0.00 | 0.00 | 0.00 | 67 | 1017.2 |
| 20260506002726 | 20 | 127 | 3.2 | 3.2 | 0.00 | 0.00 | 0.00 | 66 | 1017.3 |
| 20260506002223 | 20 | 108 | 0.0 | 1.6 | 0.00 | 0.00 | 0.00 | 66 | 1017.3 |
| 20260506001719 | 20 | 108 | 1.6 | 3.2 | 0.00 | 0.00 | 0.00 | 65 | 1017.2 |
| 20260506001217 | 20 | 142 | 0.0 | 1.6 | 0.00 | 0.00 | 0.00 | 65 | 1017.3 |
| 20260506000713 | 20 | 127 | 3.2 | 4.8 | 0.00 | 0.00 | 0.00 | 64 | 1017.1 |
| 20260506000212 | 21 | 127 | 3.2 | 6.4 | 0.00 | 0.00 | 0.00 | 64 | 1017.4 |
| 20260505235708 | 21 | 169 | 0.0 | 4.8 | 0.00 | 0.00 | 0.00 | 64 | 1017.3 |
| 20260505235206 | 21 | 53 | 0.0 | 4.8 | 0.00 | 0.00 | 0.00 | 63 | 1017.0 |
| 20260505234702 | 21 | 140 | 4.8 | 6.4 | 0.00 | 0.00 | 0.00 | 62 | 1017.2 |
| 20260505234200 | 21 | 142 | 1.6 | 6.4 | 0.00 | 0.00 | 0.00 | 62 | 1017.3 |
| 20260505233656 | 21 | 108 | 1.6 | 6.4 | 0.00 | 0.00 | 0.00 | 61 | 1017.1 |
| 20260505233154 | 21 | 139 | 0.0 | 4.8 | 0.00 | 0.00 | 0.00 | 62 | 1017.0 |
| 20260505232651 | 22 | 123 | 4.8 | 9.7 | 0.00 | 0.00 | 0.00 | 62 | 1016.8 |
| 20260505232149 | 22 | 116 | 4.8 | 9.7 | 0.00 | 0.00 | 0.00 | 62 | 1016.7 |
| 20260505231645 | 22 | 143 | 4.8 | 8.0 | 0.00 | 0.00 | 0.00 | 61 | 1017.1 |
| 20260505231144 | 22 | 74 | 3.2 | 12.9 | 0.00 | 0.00 | 0.00 | 60 | 1016.8 |
| 20260505230642 | 23 | 129 | 1.6 | 9.7 | 0.00 | 0.00 | 0.00 | 58 | 1016.9 |
| 20260505230138 | 23 | 110 | 9.7 | 9.7 | 0.00 | 0.00 | 0.00 | 56 | 1017.1 |
| 20260505225634 | 23 | 140 | 0.0 | 9.7 | 0.00 | 0.00 | 0.00 | 56 | 1016.9 |
| 20260505225131 | 23 | 128 | 6.4 | 8.0 | 0.00 | 0.00 | 0.00 | 55 | 1016.9 |
| 20260505224627 | 24 | 131 | 3.2 | 4.8 | 0.00 | 0.00 | 0.00 | 54 | 1017.0 |
| 20260505224125 | 24 | 111 | 1.6 | 6.4 | 0.00 | 0.00 | 0.00 | 54 | 1016.9 |
| 20260505223622 | 24 | 181 | 3.2 | 6.4 | 0.00 | 0.00 | 0.00 | 54 | 1016.8 |
| 20260505223118 | 24 | 9 | 0.0 | 8.0 | 0.00 | 0.00 | 0.00 | 53 | 1016.9 |
| 20260505222615 | 24 | 55 | 1.6 | 8.0 | 0.00 | 0.00 | 0.00 | 53 | 1017.0 |
| 20260505222111 | 24 | 89 | 3.2 | 9.7 | 0.00 | 0.00 | 0.00 | 53 | 1016.7 |
| 20260505221608 | 25 | 67 | 4.8 | 11.3 | 0.00 | 0.00 | 0.00 | 53 | 1016.9 |
| 20260505221104 | 25 | 134 | 4.8 | 6.4 | 0.00 | 0.00 | 0.00 | 53 | 1017.0 |
| 20260505220602 | 25 | 96 | 3.2 | 6.4 | 0.00 | 0.00 | 0.00 | 54 | 1017.2 |
| 20260505220100 | 24 | 36 | 6.4 | 9.7 | 0.00 | 0.00 | 0.00 | 53 | 1017.1 |
| 20260505215557 | 25 | 131 | 6.4 | 9.7 | 0.00 | 0.00 | 0.00 | 52 | 1017.0 |
| 20260505215055 | 25 | 124 | 1.6 | 4.8 | 0.00 | 0.00 | 0.00 | 52 | 1016.9 |
| 20260505214553 | 25 | 135 | 3.2 | 9.7 | 0.00 | 0.00 | 0.00 | 52 | 1017.3 |
| 20260505214049 | 25 | 137 | 3.2 | 6.4 | 0.00 | 0.00 | 0.00 | 52 | 1017.1 |
| 20260505213548 | 25 | 137 | 3.2 | 6.4 | 0.00 | 0.00 | 0.00 | 52 | 1017.2 |
| 20260505213043 | 25 | 165 | 3.2 | 11.3 | 0.00 | 0.00 | 0.00 | 51 | 1017.0 |
| 20260505212540 | 25 | 312 | 3.2 | 9.7 | 0.00 | 0.00 | 0.00 | 51 | 1017.2 |
| 20260505212038 | 25 | 263 | 3.2 | 9.7 | 0.00 | 0.00 | 0.00 | 50 | 1017.3 |
| 20260505211534 | 25 | 120 | 6.4 | 6.4 | 0.00 | 0.00 | 0.00 | 49 | 1017.5 |
| 20260505211031 | 26 | 120 | 4.8 | 9.7 | 0.00 | 0.00 | 0.00 | 48 | 1017.2 |
| 20260505210528 | 26 | 226 | 6.4 | 11.3 | 0.00 | 0.00 | 0.00 | 49 | 1017.3 |
| 20260505210025 | 26 | 230 | 9.7 | 9.7 | 0.00 | 0.00 | 0.00 | 48 | 1017.0 |
| 20260505205523 | 26 | 263 | 1.6 | 8.0 | 0.00 | 0.00 | 0.00 | 49 | 1016.9 |
| 20260505205020 | 26 | 281 | 4.8 | 8.0 | 0.00 | 0.00 | 0.00 | 48 | 1017.1 |
| 20260505204518 | 26 | 171 | 4.8 | 8.0 | 0.00 | 0.00 | 0.00 | 49 | 1017.2 |
| 20260505204014 | 26 | 98 | 3.2 | 6.4 | 0.00 | 0.00 | 0.00 | 46 | 1017.1 |
| 20260505203511 | 26 | 123 | 4.8 | 8.0 | 0.00 | 0.00 | 0.00 | 46 | 1017.1 |
| 20260505203008 | 26 | 262 | 9.7 | 9.7 | 0.00 | 0.00 | 0.00 | 47 | 1017.1 |
| 20260505202504 | 26 | 119 | 3.2 | 8.0 | 0.00 | 0.00 | 0.00 | 45 | 1017.1 |
| 20260505202000 | 26 | 20 | 3.2 | 11.3 | 0.00 | 0.00 | 0.00 | 45 | 1017.0 |
| 20260505201457 | 26 | 130 | 1.6 | 6.4 | 0.00 | 0.00 | 0.00 | 45 | 1017.1 |
| 20260505200955 | 26 | 116 | 6.4 | 9.7 | 0.00 | 0.00 | 0.00 | 44 | 1017.4 |
| 20260505200453 | 26 | 101 | 3.2 | 9.7 | 0.00 | 0.00 | 0.00 | 46 | 1017.3 |
| 20260505195948 | 26 | 292 | 6.4 | 8.0 | 0.00 | 0.00 | 0.00 | 50 | 1017.4 |
| 20260505195445 | 26 | 345 | 3.2 | 9.7 | 0.00 | 0.00 | 0.00 | 48 | 1017.2 |
| 20260505194942 | 26 | 126 | 4.8 | 9.7 | 0.00 | 0.00 | 0.00 | 49 | 1017.4 |
| 20260505194440 | 26 | 94 | 3.2 | 11.3 | 0.00 | 0.00 | 0.00 | 49 | 1017.5 |
| 20260505193940 | 26 | 279 | 8.0 | 9.7 | 0.00 | 0.00 | 0.00 | 48 | 1017.6 |
| 20260505193438 | 26 | 254 | 6.4 | 11.3 | 0.00 | 0.00 | 0.00 | 49 | 1017.7 |
| 20260505192935 | 26 | 123 | 4.8 | 11.3 | 0.00 | 0.00 | 0.00 | 49 | 1017.7 |
| 20260505192433 | 27 | 129 | 6.4 | 8.0 | 0.00 | 0.00 | 0.00 | 47 | 1018.0 |
| 20260505191931 | 26 | 160 | 6.4 | 9.7 | 0.00 | 0.00 | 0.00 | 48 | 1018.1 |
| 20260505191430 | 26 | 260 | 3.2 | 6.4 | 0.00 | 0.00 | 0.00 | 47 | 1018.2 |
| 20260505190926 | 26 | 121 | 8.0 | 16.1 | 0.00 | 0.00 | 0.00 | 47 | 1018.2 |
| 20260505190421 | 27 | 138 | 6.4 | 14.5 | 0.00 | 0.00 | 0.00 | 46 | 1018.4 |
| 20260505185916 | 26 | 81 | 1.6 | 8.0 | 0.00 | 0.00 | 0.00 | 47 | 1018.3 |
| 20260505185414 | 26 | 54 | 3.2 | 9.7 | 0.00 | 0.00 | 0.00 | 46 | 1018.4 |
| 20260505184910 | 26 | 153 | 6.4 | 12.9 | 0.00 | 0.00 | 0.00 | 46 | 1018.4 |
| 20260505184407 | 26 | 144 | 1.6 | 4.8 | 0.00 | 0.00 | 0.00 | 49 | 1018.3 |
| 20260505183904 | 26 | 178 | 6.4 | 14.5 | 0.00 | 0.00 | 0.00 | 48 | 1018.4 |
| 20260505183401 | 26 | 221 | 1.6 | 8.0 | 0.00 | 0.00 | 0.00 | 48 | 1018.3 |
| 20260505182857 | 26 | 206 | 0.0 | 16.1 | 0.00 | 0.00 | 0.00 | 46 | 1018.3 |
| 20260505182354 | 26 | 137 | 3.2 | 8.0 | 0.00 | 0.00 | 0.00 | 46 | 1018.2 |
| 20260505181851 | 26 | 225 | 4.8 | 9.7 | 0.00 | 0.00 | 0.00 | 46 | 1018.0 |
| 20260505181348 | 26 | 215 | 9.7 | 9.7 | 0.00 | 0.00 | 0.00 | 46 | 1018.0 |
| 20260505180845 | 26 | 180 | 3.2 | 11.3 | 0.00 | 0.00 | 0.00 | 45 | 1018.0 |
| 20260505180341 | 27 | 163 | 1.6 | 8.0 | 0.00 | 0.00 | 0.00 | 45 | 1018.4 |
| 20260505175838 | 26 | 251 | 8.0 | 9.7 | 0.00 | 0.00 | 0.00 | 46 | 1018.1 |
| 20260505175334 | 26 | 162 | 4.8 | 11.3 | 0.00 | 0.00 | 0.00 | 48 | 1018.0 |
| 20260505174831 | 26 | 82 | 4.8 | 8.0 | 0.00 | 0.00 | 0.00 | 45 | 1018.1 |
| 20260505174328 | 26 | 159 | 6.4 | 8.0 | 0.00 | 0.00 | 0.00 | 47 | 1018.2 |
| 20260505173824 | 25 | 155 | 6.4 | 11.3 | 0.00 | 0.00 | 0.00 | 50 | 1018.4 |
| 20260505173320 | 26 | 130 | 3.2 | 8.0 | 0.00 | 0.00 | 0.00 | 48 | 1018.0 |
| 20260505172818 | 26 | 117 | 4.8 | 6.4 | 0.00 | 0.00 | 0.00 | 48 | 1018.0 |
| 20260505172316 | 26 | 159 | 8.0 | 11.3 | 0.00 | 0.00 | 0.00 | 47 | 1017.9 |
| 20260505171815 | 26 | 339 | 6.4 | 6.4 | 0.00 | 0.00 | 0.00 | 46 | 1018.4 |
| 20260505171313 | 26 | 251 | 4.8 | 9.7 | 0.00 | 0.00 | 0.00 | 46 | 1018.5 |
| 20260505170808 | 26 | 248 | 0.0 | 8.0 | 0.00 | 0.00 | 0.00 | 47 | 1018.5 |
| 20260505170306 | 26 | 31 | 3.2 | 9.7 | 0.00 | 0.00 | 0.00 | 46 | 1018.5 |
| 20260505165801 | 26 | 136 | 6.4 | 14.5 | 0.00 | 0.00 | 0.00 | 48 | 1018.6 |
| 20260505165257 | 25 | 70 | 1.6 | 8.0 | 0.00 | 0.00 | 0.00 | 49 | 1018.6 |
| 20260505164753 | 25 | 201 | 6.4 | 11.3 | 0.00 | 0.00 | 0.00 | 49 | 1018.5 |
| 20260505164250 | 26 | 207 | 14.5 | 17.7 | 0.00 | 0.00 | 0.00 | 46 | 1019.1 |
| 20260505163748 | 27 | 164 | 1.6 | 11.3 | 0.00 | 0.00 | 0.00 | 47 | 1018.9 |
| 20260505163247 | 26 | 204 | 4.8 | 8.0 | 0.00 | 0.00 | 0.00 | 48 | 1018.6 |
| 20260505162744 | 26 | 315 | 1.6 | 6.4 | 0.00 | 0.00 | 0.00 | 49 | 1018.9 |
| 20260505162241 | 25 | 14 | 3.2 | 8.0 | 0.00 | 0.00 | 0.00 | 49 | 1018.9 |
| 20260505161737 | 25 | 176 | 3.2 | 4.8 | 0.00 | 0.00 | 0.00 | 49 | 1019.0 |
| 20260505161235 | 26 | 7 | 4.8 | 14.5 | 0.00 | 0.00 | 0.00 | 48 | 1018.9 |
| 20260505160732 | 25 | 127 | 1.6 | 6.4 | 0.00 | 0.00 | 0.00 | 49 | 1019.2 |